Showing default

OPS 0100 (TRANSIT 15), 2754

Orbit data source: Space-Track

OPS 0100 (TRANSIT 15), 2754 is a payload satellite owned by USN NAVAIR (US) in LEO that was launched on Fri, 14 Apr 1967 UTC via an SCOUT A launch vehicle from the Air Force Western Test Range (AFWTR). Payload-class satellites include a variety of spacecraft equipped with specific instruments for various scientific and technological missions. These include communications satellites like Starlink; space stations such as the ISS; scientific satellites like the Hubble; Earth observation satellites from companies like Planet Labs, Umbra, and HawkEye 360; GPS; miniature CubeSats for education and research; and military/defense satellites.

Loading next visibility...
Identifier
2754, 1967-034A
Orbit
LEO
Country
Flag of USUS
Related business
Manufacturer
APL
Mission
Spacecraft
Bus & Motor
TRANSIT 5, Unknown motor
Mass
~50 kg wet, ~50 kg dry
Launch date (UTC)
1967-04-14 (59 years ago)
Launch vehicle
SCOUT A
Launch site
Air Force Western Test Range (AFWTR)
Object type
Payload
Rocket body
Debris
Shape & HBR
Unknown
Radar Cross Section
Large (>1 m²)

Expand to show TLE details & history
Last TLE update: 7 hours ago

TLE from 7 hours ago
0 OPS 0100 (TRANSIT 15)
1  2754U 67034A   26036.48382161  .00000142  00000-0  18570-3 0  9999
2  2754  90.2264  32.0350 0019861 166.0533   0.9371 13.57373313908244
Epoch: 2026-02-05T11:36Z
TLE epoch observation values (Epoch: 2026-02-05T11:36:42.187Z)
Latitude
12.96781°
Longitude
-97.72431°
Altitude
1,032.725 km
Speed
7.344 km/s
True Right ascension
14h 08m 20s
True Declination
12° 53' 44"
Sunlit
Object was in daylight at epoch
Visualization orbit readout
Latitude
Unknown
Longitude
Unknown
Altitude
Unknown
Speed
Unknown
Apparent Right ascension
Unknown
Apparent Declination
Unknown
Sunlit
N/A
Visualization observer readout
Local Sidereal Time
20:44:12
Azimuth
Unknown
Elevation
Unknown
Doppler factor
Unknown
Orbital elements
Apogee altitude
1,057.03 km
Perigee altitude
1,027.555 km
Semi-major axis
7,420.43 km
Eccentricity
0.00199
Inclination
90.2264°
RAAN
32.035°
Arg. of periapsis
166.0533°
True anomaly
0.94083°
Mean anomaly
0.9371°
Eccentric anomaly
0.93896°
Mean motion
3.39547 °/min
Orbital period
106.02 mins
BSTAR
0.0001857
Loading maneuver chart data...
Computing Atmospheric mass density...
Loading historical data...
Loading historical data...
Loading historical data...
Loading historical data...
Loading historical data...
Loading historical data...
Loading historical data...

Documentation

Showing up to 5 results
|